Terug naar catalogus

STARLINK-30214

ActiefCommunicatieVLEO
NORAD 57411·PAYLOAD·🇺🇸 United States

Gelanceerd Jul 20, 2023 vanaf Vandenberg Space Force Base

Loading…

Volgende Passages (komende 24 uur)

TLE

VersSource: CelesTrak SupGP

Epoch: Sep 14, 2026, 21:05 UTC

1 57411C 23102H   26257.87895833  .00030334  00000+0  10992-2 0  2571
2 57411  43.0021 260.0409 0001815 264.1429 154.0707 15.27549445    15

Volg STARLINK-30214 in realtime met AllMySat

Download on the App Store